DateTimeUTC,F1_A11,F1_S11,BsB_S11,BsG_S11,BsR_S11,BbsB_S11,BbsG_S11,BbsR_S11,BaB_A11,BaG_A11,BaR_A11,Tu_S11,T_S11,Uu_S11,U_S11,P_S11,T1_A11
2021-10-16T10:00:00Z,00000200,21000000,,,,,,,-000.04,-000.44,-000.21,16.6,23.8,,00.0,0666.8,30.9
2021-10-16T10:01:00Z,00000200,21000000,,,,,,,-000.19,0000.49,-000.06,16.6,23.8,,00.0,0666.8,30.9
2021-10-16T10:02:00Z,00000200,21000000,,,,,,,0000.06,-000.36,0000.29,16.6,23.8,,00.0,0666.8,30.9
2021-10-16T10:03:00Z,00000200,61000000,,,,,,,0000.72,0000.73,-000.07,16.6,23.8,,00.0,0666.8,30.9
2021-10-16T10:04:00Z,00000200,41000000,0004.42,0003.02,0001.44,0000.69,0000.49,0000.44,0000.51,0000.46,0001.01,16.9,23.7,,00.0,0667.7,30.9
2021-10-16T10:05:00Z,00000200,01000000,0004.09,0002.96,0001.30,0000.20,0000.65,0000.05,0000.64,0000.77,-000.13,17.0,23.6,,00.0,0667.8,30.9
2021-10-16T10:06:00Z,00000200,01000000,0002.35,0001.04,0000.81,0000.49,0000.46,-000.10,0000.67,0000.29,0000.70,17.0,23.7,,00.0,0667.8,30.9
2021-10-16T10:07:00Z,00000200,01000000,0000.78,0000.06,-000.02,0000.02,0000.34,0000.10,0000.03,-000.30,0000.23,17.0,23.6,,00.0,0667.8,30.9
2021-10-16T10:08:00Z,00000200,01000000,0000.30,-000.15,-000.10,-000.27,0000.26,-000.11,0000.30,0000.47,-000.20,17.1,23.7,,00.0,0667.8,30.9
2021-10-16T10:09:00Z,00000200,01000000,0000.07,0000.30,-000.07,0000.42,-000.10,-000.05,-000.39,0000.17,-000.10,17.1,23.7,,00.0,0667.8,30.9
2021-10-16T10:10:00Z,00000200,01000000,-000.03,0000.10,0000.04,0000.22,0000.20,0000.27,0000.10,-000.24,-000.24,17.1,23.7,,00.0,0667.8,30.9
2021-10-16T10:11:00Z,00000200,01000000,-000.26,0000.28,0000.08,-000.06,0000.15,-000.01,-000.11,-000.42,-000.07,17.0,23.7,,00.0,0667.8,30.8
2021-10-16T10:12:00Z,00000200,01000000,0000.21,0000.18,0000.15,-000.14,-000.34,-000.15,-000.36,0000.14,0000.08,16.9,23.6,,00.0,0667.8,30.8
2021-10-16T10:13:00Z,00000200,01000000,0000.18,0000.38,-000.17,-000.57,0000.24,-000.50,0000.45,-000.13,0000.12,16.9,23.6,,00.0,0667.8,30.8
2021-10-16T10:14:00Z,00000200,01000000,0000.43,-000.08,-000.02,-000.08,0000.35,-000.39,0000.12,-000.11,-000.11,16.8,23.5,,00.0,0667.8,30.9
2021-10-16T10:15:00Z,00000200,01000000,0000.41,0000.00,-000.43,0000.37,-000.15,-000.23,-000.14,0000.44,0000.34,16.8,23.5,,00.0,0667.8,30.9
2021-10-16T10:16:00Z,00000200,01000000,0000.64,0000.08,0000.27,-000.12,0000.06,0000.00,0000.15,0000.23,-000.10,16.9,23.5,,00.0,0667.8,30.9
2021-10-16T10:17:00Z,00000200,01000000,0000.36,-000.19,-000.16,0000.10,0000.16,0000.16,0000.10,-000.48,0000.12,16.9,23.5,,00.0,0667.8,30.9
2021-10-16T10:18:00Z,00000200,01000000,-000.68,0000.17,-000.25,0000.32,0000.35,0000.17,0000.01,0000.75,0000.13,16.9,23.6,,00.0,0667.8,30.9
2021-10-16T10:19:00Z,00000200,01000000,-000.45,0000.01,0000.31,0000.11,0000.21,-000.01,0000.20,0000.32,0000.17,16.9,23.5,,00.0,0667.8,30.9
2021-10-16T10:20:00Z,00000200,01000000,0000.60,0000.18,0000.18,-000.13,0000.14,-000.14,-000.03,-000.39,-000.19,17.0,23.5,,00.0,0667.8,30.9
2021-10-16T10:21:00Z,00000200,01000000,0000.74,0000.05,0000.06,-000.04,0000.32,0000.23,0000.24,-000.18,-000.03,17.0,23.6,,00.0,0667.8,30.9
2021-10-16T10:22:00Z,00000200,01000000,-000.11,-000.08,0000.16,-000.49,0000.33,0000.10,-000.08,0000.03,0000.23,17.1,23.6,,00.0,0667.8,30.9
2021-10-16T10:23:00Z,00000200,01000000,0000.09,0000.27,0000.05,0000.09,0000.09,0000.24,-000.20,0000.18,-000.26,17.1,23.6,,00.0,0667.8,30.9
2021-10-16T10:24:00Z,00000200,01000000,0000.97,-000.01,-000.11,-000.46,0000.06,-000.18,0000.13,-000.00,0000.08,17.1,23.6,,00.0,0667.8,30.9
2021-10-16T10:25:00Z,00000200,01000000,0001.01,0000.02,0000.25,0000.01,0000.15,0000.25,-000.21,-000.16,-000.40,17.0,23.6,,00.0,0667.8,30.9
2021-10-16T10:26:00Z,00000200,01000000,0000.32,0000.12,-000.06,0000.51,0000.20,-000.01,-000.24,-000.25,-000.02,17.0,23.6,,00.0,0667.8,30.9
2021-10-16T10:27:00Z,00000200,01000000,0000.04,0000.48,0000.07,0000.02,0000.18,0000.14,0000.24,-000.19,0000.04,16.9,23.5,,00.0,0667.8,30.8
2021-10-16T10:28:00Z,00000200,01000000,0000.54,0000.70,0000.15,0000.78,0000.26,-000.01,0000.12,0000.14,0000.17,16.8,23.5,,00.0,0667.8,30.8
2021-10-16T10:29:00Z,00000200,01000000,0000.97,0000.40,0000.19,-000.21,0000.40,0000.33,0000.28,0000.17,0000.02,16.7,23.5,,00.0,0667.8,30.8
2021-10-16T10:30:00Z,00000200,01000000,0000.41,0000.49,0000.10,-000.24,0000.09,0000.01,-000.00,0000.45,0000.15,16.7,23.4,,00.0,0667.8,30.8
2021-10-16T10:31:00Z,00000200,01000000,0001.15,0000.20,0000.14,-000.00,0000.13,0000.18,0000.51,-000.12,0000.16,16.8,23.5,,00.0,0667.8,30.8
2021-10-16T10:32:00Z,00000200,01000000,0001.22,0000.41,0000.41,-000.20,0000.23,0000.36,-000.05,0000.59,0000.30,16.8,23.5,,00.0,0667.8,30.9
2021-10-16T10:33:00Z,00000200,01000000,0000.87,0000.43,0000.16,0000.19,0000.42,0000.04,0000.06,-000.10,0000.18,16.8,23.5,,00.0,0667.8,30.9
2021-10-16T10:34:00Z,00000200,01000000,0000.54,0000.75,0000.61,0000.34,0000.17,0000.07,0000.40,0000.24,0000.08,16.8,23.5,,00.0,0667.8,30.9
2021-10-16T10:35:00Z,00000200,01000000,0001.80,0000.68,0000.33,-000.17,0000.40,0000.40,0000.20,0000.31,0000.28,16.9,23.5,,00.0,0667.8,30.9
2021-10-16T10:36:00Z,00000200,01000000,0001.12,0000.51,0000.31,-000.33,0000.14,0000.33,0000.53,0000.19,0000.20,16.9,23.5,,00.0,0667.8,30.9
2021-10-16T10:37:00Z,00000200,01000000,0001.48,0001.10,0000.54,0000.22,0000.44,0000.23,0000.54,0000.49,-000.13,16.9,23.5,,00.0,0667.8,30.9
2021-10-16T10:38:00Z,00000200,01000000,0002.63,0001.87,0001.21,0000.03,0000.22,0000.35,0000.22,0000.37,0000.68,17.0,23.5,,00.0,0667.8,30.9
2021-10-16T10:39:00Z,00000200,01000000,0002.31,0002.00,0001.69,0000.17,0000.06,0000.35,0000.73,0000.84,0000.35,17.0,23.5,,00.0,0667.8,30.9
2021-10-16T10:40:00Z,00000200,01000000,0003.81,0002.13,0001.22,0000.09,0000.14,0000.38,0000.64,0000.31,0000.18,17.0,23.5,,00.0,0667.8,30.9
2021-10-16T10:41:00Z,00000200,01000000,0002.86,0002.01,0001.00,0000.33,0000.22,-000.19,0000.86,0000.84,0001.00,17.0,23.5,,00.0,0667.8,30.9
2021-10-16T10:42:00Z,00000200,01000000,0002.59,0001.98,0001.40,0000.11,0000.43,0000.38,0001.07,0001.01,0000.49,17.0,23.5,,00.0,0667.7,30.9
2021-10-16T10:43:00Z,00000200,01000000,0002.50,0002.03,0001.16,0000.57,0000.51,0000.39,0000.44,0000.57,0000.52,16.9,23.5,,00.0,0667.7,30.9
2021-10-16T10:44:00Z,00000200,01000000,0002.86,0002.35,0001.58,0000.72,0000.18,0000.26,0001.05,0001.25,0000.48,16.9,23.5,,00.0,0667.7,30.9
2021-10-16T10:45:00Z,00000200,01000000,0004.16,0002.18,0001.23,-000.22,0000.38,0000.50,0000.90,0000.49,0000.55,16.9,23.5,,00.0,0667.7,30.9
2021-10-16T10:46:00Z,00000200,01000000,0003.52,0002.61,0001.04,-000.24,0000.15,0000.40,0000.86,0000.71,0000.62,16.9,23.5,,00.0,0667.7,30.9
2021-10-16T10:47:00Z,00000200,01000000,0002.55,0002.12,0001.19,0000.39,0000.50,0000.17,0000.18,0000.46,0000.53,17.0,23.5,,00.0,0667.7,30.9
2021-10-16T10:48:00Z,00000200,01000000,0003.73,0002.36,0001.28,0000.12,0000.14,0000.38,0000.47,0000.60,0000.11,17.0,23.5,,00.0,0667.8,30.9
2021-10-16T10:49:00Z,00000200,01000000,0002.99,0002.08,0001.18,-000.26,0000.40,0000.35,0000.58,0000.24,0000.55,17.0,23.5,,00.0,0667.8,30.9
2021-10-16T10:50:00Z,00000200,01000000,0002.58,0002.08,0000.92,-000.02,0000.05,0000.06,0000.79,0000.63,0000.12,17.1,23.5,,00.0,0667.8,30.9
2021-10-16T10:51:00Z,00000200,01000000,0002.91,0001.95,0001.42,0000.61,0000.33,0000.06,0000.61,0000.43,0000.42,17.1,23.6,,00.0,0667.8,30.9
2021-10-16T10:52:00Z,00000200,01000000,0003.03,0002.20,0001.37,0000.22,0000.30,0000.27,0000.49,0000.55,0000.48,17.2,23.6,,00.0,0667.8,30.9
2021-10-16T10:53:00Z,00000200,01000000,0003.32,0002.24,0001.47,0000.24,0000.36,0000.28,0000.35,0000.53,0000.18,17.2,23.6,,00.0,0667.8,30.9
2021-10-16T10:54:00Z,00000200,01000000,0003.69,0002.45,0001.47,0000.06,0000.30,0000.25,0000.27,0000.17,0000.50,17.2,23.6,,00.0,0667.7,30.9
2021-10-16T10:55:00Z,00000200,01000000,0003.44,0002.62,0001.89,0000.98,0000.68,0000.48,0000.93,0000.81,0000.37,17.2,23.6,,00.0,0667.7,30.9
2021-10-16T10:56:00Z,00000200,01000000,0004.74,0003.17,0001.71,0000.66,0000.52,0000.56,0000.21,-000.08,-000.17,17.2,23.6,,00.0,0667.7,30.9
2021-10-16T10:57:00Z,00000200,41000000,,,,,,,-000.34,-000.71,-000.45,17.2,23.7,,00.0,0667.7,30.9
2021-10-16T10:58:00Z,00000200,61000000,,,,,,,0000.03,0000.39,0000.41,16.7,23.7,,00.0,0666.7,30.9
2021-10-16T10:59:00Z,00000200,21000000,,,,,,,0000.23,-000.11,-000.04,16.7,23.8,,00.0,0666.7,30.9
